STARLINK-36123, 67007

Orbit data source: Space-Track

STARLINK-36123, 67007 is a payload satellite owned by SpaceX/Seattle (US) in LEO that was launched on Wed, 10 Dec 2025 UTC via an FALCON 9 launch vehicle from the Air Force Western Test Range (AFWTR). Payload-class satellites include a variety of spacecraft equipped with specific instruments for various scientific and technological missions. These include communications satellites like Starlink; space stations such as the ISS; scientific satellites like the Hubble; Earth observation satellites from companies like Planet Labs, Umbra, and HawkEye 360; GPS; miniature CubeSats for education and research; and military/defense satellites.

Loading next visibility...
Identifier
67007, 2025-293E
Orbit
LEO
Country
Flag of USUS
Related business
Manufacturer
SpaceX/Seattle
Mission
Operational Commercial Communications
Bus & Motor
STARLINK V2MO, Unknown motor
Mass
575 kg wet, ~530 kg dry
Launch date (UTC)
2025-12-10 (6 months ago)
Launch vehicle
FALCON 9
Launch site
Air Force Western Test Range (AFWTR)
Object type
Payload
Rocket body
Debris
Shape & HBR
Box + 2 Pan, 17.7 m
Radar Cross Section
36.964 m², Large (>1 m²)

Expand to show TLE details & history
Last TLE update: 11 hours ago

TLE from 11 hours ago
0 STARLINK-36123
1 67007U 25293E   26171.38846544  .00002769  00000-0  23974-3 0  9992
2 67007  70.0002 195.4125 0003946 268.9097  91.1610 14.98335703 30274
Epoch: 2026-06-20T09:19Z
TLE epoch observation values (Epoch: 2026-06-20T09:19:23.414Z)
Latitude
0.00001°
Longitude
146.96114°
Altitude
574.519 km
Speed
7.574 km/s
True Right ascension
13h 01m 39s
True Declination
0° 00' 00"
Sunlit
Object was in daylight at epoch
Visualization orbit readout
Latitude
Unknown
Longitude
Unknown
Altitude
Unknown
Speed
Unknown
Apparent Right ascension
Unknown
Apparent Declination
Unknown
Sunlit
N/A
Visualization observer readout
Local Sidereal Time
07:12:53
Azimuth
Unknown
Elevation
Unknown
Doppler factor
Unknown
Orbital elements
Apogee altitude
572.728 km
Perigee altitude
567.245 km
Semi-major axis
6,948.123 km
Eccentricity
0.00039
Inclination
70.0002°
RAAN
195.4125°
Arg. of periapsis
268.9097°
True anomaly
91.20621°
Mean anomaly
91.161°
Eccentric anomaly
91.1836°
Mean motion
3.7475 °/min
Orbital period
96.06 mins
BSTAR
0.00023974
Loading maneuver chart data...
Computing Atmospheric mass density...
Loading historical data...
Loading historical data...
Loading historical data...
Loading historical data...
Loading historical data...
Loading historical data...
Loading historical data...

Documentation

Showing up to 5 results
|